| time (UTC) | temp F | wind direction | speed knots | gust knots | rain 1hr in | rain 24hr in | rain mn in | humidity % | barometer mb |
| 20260831075010 | 81 | 263 | 1.7 | 1.7 | 0.00 | 0.00 | 0.00 | 77 | 1014.5 |
| 20260831074509 | 81 | 134 | 0.0 | 3.5 | 0.00 | 0.00 | 0.00 | 77 | 1014.6 |
| 20260831074009 | 81 | 180 | 1.7 | 3.5 | 0.00 | 0.00 | 0.00 | 76 | 1014.6 |
| 20260831073509 | 82 | 136 | 0.9 | 1.7 | 0.00 | 0.00 | 0.00 | 76 | 1014.7 |
| 20260831073009 | 82 | 136 | 0.9 | 2.6 | 0.00 | 0.00 | 0.00 | 76 | 1014.7 |
| 20260831072509 | 82 | 126 | 2.6 | 2.6 | 0.00 | 0.00 | 0.00 | 75 | 1014.6 |
| 20260831071509 | 82 | 207 | 0.0 | 3.5 | 0.00 | 0.00 | 0.00 | 75 | 1014.6 |
| 20260831071009 | 82 | 170 | 0.9 | 3.5 | 0.00 | 0.00 | 0.00 | 74 | 1014.6 |
| 20260831070009 | 82 | 157 | 2.6 | 3.5 | 0.00 | 0.00 | 0.00 | 74 | 1014.7 |
| 20260831065509 | 82 | 91 | 0.0 | 4.3 | 0.00 | 0.00 | 0.00 | 73 | 1014.7 |
| 20260831065009 | 83 | 208 | 0.9 | 4.3 | 0.00 | 0.00 | 0.00 | 73 | 1014.7 |
| 20260831064509 | 83 | 133 | 2.6 | 5.2 | 0.00 | 0.00 | 0.00 | 73 | 1014.7 |
| 20260831063008 | 83 | 121 | 0.9 | 2.6 | 0.00 | 0.00 | 0.00 | 71 | 1014.8 |
| 20260831062508 | 83 | 150 | 0.0 | 1.7 | 0.00 | 0.00 | 0.00 | 71 | 1014.9 |
| 20260831062008 | 83 | 293 | 0.9 | 2.6 | 0.00 | 0.00 | 0.00 | 70 | 1014.7 |
| 20260831061508 | 84 | 112 | 1.7 | 5.2 | 0.00 | 0.00 | 0.00 | 70 | 1014.8 |
| 20260831061008 | 84 | 213 | 2.6 | 5.2 | 0.00 | 0.00 | 0.00 | 70 | 1014.7 |
| 20260831060508 | 84 | 243 | 2.6 | 4.3 | 0.00 | 0.00 | 0.00 | 70 | 1014.7 |
| 20260831060008 | 84 | 207 | 1.7 | 3.5 | 0.00 | 0.00 | 0.00 | 69 | 1014.7 |
| 20260831055508 | 84 | 127 | 0.9 | 4.3 | 0.00 | 0.00 | 0.00 | 69 | 1014.5 |
| 20260831055008 | 84 | 154 | 1.7 | 9.6 | 0.00 | 0.00 | 0.00 | 68 | 1014.5 |
| 20260831054508 | 85 | 142 | 2.6 | 9.6 | 0.00 | 0.00 | 0.00 | 68 | 1014.5 |
| 20260831053508 | 85 | 196 | 1.7 | 4.3 | 0.00 | 0.00 | 0.00 | 66 | 1014.4 |
| 20260831052008 | 86 | 127 | 1.7 | 2.6 | 0.00 | 0.00 | 0.00 | 65 | 1014.4 |
| 20260831051007 | 86 | 171 | 0.9 | 7.0 | 0.00 | 0.00 | 0.00 | 65 | 1014.2 |
| 20260831050037 | 86 | 196 | 0.9 | 4.3 | 0.00 | 0.00 | 0.00 | 64 | 1014.2 |
| 20260831045508 | 86 | 167 | 4.3 | 4.3 | 0.00 | 0.00 | 0.00 | 63 | 1014.0 |
| 20260831045007 | 86 | 155 | 0.0 | 2.6 | 0.00 | 0.00 | 0.00 | 62 | 1014.0 |
| 20260831044507 | 87 | 192 | 0.0 | 3.5 | 0.00 | 0.00 | 0.00 | 62 | 1014.1 |
| 20260831044007 | 87 | 181 | 2.6 | 4.3 | 0.00 | 0.00 | 0.00 | 62 | 1014.1 |
| 20260831042507 | 87 | 123 | 0.0 | 2.6 | 0.00 | 0.00 | 0.00 | 60 | 1013.9 |
| 20260831042007 | 87 | 103 | 2.6 | 4.3 | 0.00 | 0.00 | 0.00 | 60 | 1014.0 |
| 20260831041507 | 88 | 126 | 0.0 | 8.7 | 0.00 | 0.00 | 0.00 | 59 | 1014.2 |
| 20260831041007 | 88 | 157 | 0.9 | 8.7 | 0.00 | 0.00 | 0.00 | 59 | 1014.2 |
| 20260831040007 | 88 | 169 | 0.0 | 1.7 | 0.00 | 0.00 | 0.00 | 58 | 1014.2 |
| 20260831035507 | 88 | 119 | 1.7 | 6.1 | 0.00 | 0.00 | 0.00 | 57 | 1013.9 |
| 20260831034507 | 89 | 213 | 2.6 | 5.2 | 0.00 | 0.00 | 0.00 | 57 | 1013.8 |
| 20260831034006 | 89 | 265 | 1.7 | 7.0 | 0.00 | 0.00 | 0.00 | 56 | 1013.7 |
| 20260831033507 | 89 | 121 | 2.6 | 8.7 | 0.00 | 0.00 | 0.00 | 56 | 1013.7 |
| 20260831033006 | 89 | 163 | 5.2 | 8.7 | 0.00 | 0.00 | 0.00 | 56 | 1013.6 |
| 20260831032507 | 89 | 238 | 0.9 | 5.2 | 0.00 | 0.00 | 0.00 | 55 | 1013.6 |
| 20260831032006 | 90 | 121 | 4.3 | 5.2 | 0.00 | 0.00 | 0.00 | 55 | 1013.7 |
| 20260831031506 | 90 | 155 | 5.2 | 6.1 | 0.00 | 0.00 | 0.00 | 55 | 1013.6 |
| 20260831031006 | 90 | 136 | 1.7 | 6.1 | 0.00 | 0.00 | 0.00 | 54 | 1013.5 |
| 20260831030507 | 90 | 111 | 2.6 | 7.8 | 0.00 | 0.00 | 0.00 | 54 | 1013.4 |
| 20260831030006 | 90 | 132 | 3.5 | 7.8 | 0.00 | 0.00 | 0.00 | 54 | 1013.3 |
| 20260831025506 | 90 | 223 | 1.7 | 3.5 | 0.00 | 0.00 | 0.00 | 54 | 1013.1 |
| 20260831025006 | 91 | 107 | 2.6 | 10.4 | 0.00 | 0.00 | 0.00 | 53 | 1013.0 |
| 20260831024506 | 91 | 102 | 3.5 | 10.4 | 0.00 | 0.00 | 0.00 | 53 | 1012.9 |
| 20260831024006 | 91 | 84 | 2.6 | 3.5 | 0.00 | 0.00 | 0.00 | 53 | 1012.8 |
| 20260831023506 | 91 | 101 | 0.0 | 5.2 | 0.00 | 0.00 | 0.00 | 53 | 1012.7 |
| 20260831023006 | 91 | 119 | 4.3 | 8.7 | 0.00 | 0.00 | 0.00 | 52 | 1012.7 |
| 20260831022506 | 91 | 95 | 8.7 | 8.7 | 0.00 | 0.00 | 0.00 | 52 | 1012.5 |
| 20260831022006 | 92 | 174 | 2.6 | 8.7 | 0.00 | 0.00 | 0.00 | 52 | 1012.4 |
| 20260831021506 | 92 | 112 | 2.6 | 6.1 | 0.00 | 0.00 | 0.00 | 51 | 1012.3 |
| 20260831021006 | 92 | 126 | 6.1 | 7.0 | 0.00 | 0.00 | 0.00 | 51 | 1012.3 |
| 20260831020505 | 92 | 263 | 1.7 | 10.4 | 0.00 | 0.00 | 0.00 | 51 | 1012.3 |
| 20260831015506 | 93 | 144 | 1.7 | 5.2 | 0.00 | 0.00 | 0.00 | 49 | 1012.1 |
| 20260831015006 | 93 | 127 | 0.0 | 6.1 | 0.00 | 0.00 | 0.00 | 48 | 1012.0 |
| 20260831014505 | 93 | 123 | 2.6 | 13.0 | 0.00 | 0.00 | 0.00 | 47 | 1012.0 |
| 20260831013505 | 94 | 126 | 1.7 | 10.4 | 0.00 | 0.00 | 0.00 | 46 | 1011.8 |
| 20260831013005 | 94 | 128 | 3.5 | 13.0 | 0.00 | 0.00 | 0.00 | 45 | 1011.8 |
| 20260831012505 | 95 | 130 | 7.0 | 13.0 | 0.00 | 0.00 | 0.00 | 45 | 1011.7 |
| 20260831012005 | 95 | 169 | 3.5 | 8.7 | 0.00 | 0.00 | 0.00 | 42 | 1011.6 |
| 20260831011505 | 95 | 126 | 3.5 | 7.0 | 0.00 | 0.00 | 0.00 | 40 | 1011.4 |
| 20260831011005 | 96 | 149 | 0.9 | 2.6 | 0.00 | 0.00 | 0.00 | 40 | 1011.3 |
| 20260831010505 | 96 | 115 | 0.9 | 1.7 | 0.00 | 0.00 | 0.00 | 40 | 1011.3 |
| 20260831010005 | 96 | 96 | 1.7 | 5.2 | 0.00 | 0.00 | 0.00 | 40 | 1011.3 |
| 20260831005505 | 96 | 131 | 1.7 | 5.2 | 0.00 | 0.00 | 0.00 | 40 | 1011.2 |
| 20260831005005 | 96 | 136 | 1.7 | 5.2 | 0.00 | 0.00 | 0.00 | 40 | 1011.2 |
| 20260831004505 | 97 | 101 | 1.7 | 5.2 | 0.00 | 0.00 | 0.00 | 39 | 1011.2 |
| 20260831004005 | 97 | 133 | 1.7 | 4.3 | 0.00 | 0.00 | 0.00 | 39 | 1011.2 |
| 20260831003004 | 97 | 186 | 1.7 | 1.7 | 0.00 | 0.00 | 0.00 | 39 | 1011.2 |
| 20260831002005 | 98 | 159 | 0.9 | 3.5 | 0.00 | 0.00 | 0.00 | 39 | 1011.1 |
| 20260831001505 | 98 | 104 | 0.0 | 6.1 | 0.00 | 0.00 | 0.00 | 39 | 1011.1 |
| 20260831001005 | 98 | 133 | 3.5 | 6.1 | 0.00 | 0.00 | 0.00 | 39 | 1011.0 |
| 20260831000504 | 98 | 235 | 2.6 | 4.3 | 0.00 | 0.00 | 0.00 | 39 | 1011.0 |
| 20260831000034 | 98 | 128 | 0.9 | 4.3 | 0.00 | 0.00 | 0.00 | 39 | 1011.0 |
| 20260830235504 | 98 | 124 | 1.7 | 7.8 | 0.00 | 0.00 | 0.00 | 39 | 1011.1 |
| 20260830234504 | 98 | 243 | 0.0 | 4.3 | 0.00 | 0.00 | 0.00 | 38 | 1011.2 |
| 20260830232534 | 99 | 107 | 1.7 | 7.8 | 0.00 | 0.00 | 0.00 | 38 | 1011.2 |
| 20260830231534 | 99 | 91 | 1.7 | 9.6 | 0.00 | 0.00 | 0.00 | 38 | 1011.2 |
| 20260830231033 | 99 | 97 | 2.6 | 6.1 | 0.00 | 0.00 | 0.00 | 38 | 1011.2 |
| 20260830230533 | 99 | 92 | 1.7 | 7.8 | 0.00 | 0.00 | 0.00 | 37 | 1011.1 |
| 20260830230033 | 99 | 125 | 7.8 | 7.8 | 0.00 | 0.00 | 0.00 | 38 | 1011.1 |
| 20260830225533 | 100 | 121 | 1.7 | 5.2 | 0.00 | 0.00 | 0.00 | 38 | 1011.2 |
| 20260830225033 | 99 | 195 | 1.7 | 5.2 | 0.00 | 0.00 | 0.00 | 38 | 1011.2 |
| 20260830224533 | 99 | 291 | 0.9 | 7.8 | 0.00 | 0.00 | 0.00 | 38 | 1011.3 |
| 20260830224033 | 99 | 119 | 0.9 | 7.8 | 0.00 | 0.00 | 0.00 | 38 | 1011.3 |
| 20260830223033 | 99 | 107 | 0.9 | 7.8 | 0.00 | 0.00 | 0.00 | 38 | 1011.3 |
| 20260830222533 | 99 | 149 | 0.0 | 7.8 | 0.00 | 0.00 | 0.00 | 38 | 1011.3 |
| 20260830222033 | 99 | 121 | 1.7 | 3.5 | 0.00 | 0.00 | 0.00 | 39 | 1011.3 |
| 20260830221533 | 98 | 105 | 2.6 | 7.0 | 0.00 | 0.00 | 0.00 | 39 | 1011.4 |
| 20260830221033 | 98 | 132 | 7.0 | 7.0 | 0.00 | 0.00 | 0.00 | 39 | 1011.4 |
| 20260830220533 | 98 | 155 | 3.5 | 6.1 | 0.00 | 0.00 | 0.00 | 40 | 1011.4 |
| 20260830220032 | 98 | 142 | 0.9 | 6.1 | 0.00 | 0.00 | 0.00 | 40 | 1011.5 |
| 20260830215533 | 98 | 142 | 5.2 | 7.0 | 0.00 | 0.00 | 0.00 | 41 | 1011.5 |
| 20260830214532 | 98 | 171 | 0.9 | 5.2 | 0.00 | 0.00 | 0.00 | 41 | 1011.7 |
| 20260830214032 | 98 | 75 | 1.7 | 6.1 | 0.00 | 0.00 | 0.00 | 41 | 1011.7 |
| 20260830212532 | 98 | 102 | 2.6 | 7.8 | 0.00 | 0.00 | 0.00 | 42 | 1012.0 |
| 20260830212032 | 98 | 160 | 5.2 | 7.8 | 0.00 | 0.00 | 0.00 | 42 | 1012.0 |
| 20260830211532 | 98 | 147 | 2.6 | 7.0 | 0.00 | 0.00 | 0.00 | 42 | 1012.2 |
| 20260830211032 | 98 | 281 | 3.5 | 8.7 | 0.00 | 0.00 | 0.00 | 42 | 1012.2 |
| 20260830210532 | 98 | 250 | 2.6 | 8.7 | 0.00 | 0.00 | 0.00 | 42 | 1012.3 |
| 20260830210032 | 98 | 304 | 2.6 | 3.5 | 0.00 | 0.00 | 0.00 | 43 | 1012.4 |
| 20260830205032 | 97 | 178 | 1.7 | 6.1 | 0.00 | 0.00 | 0.00 | 44 | 1012.7 |
| 20260830204031 | 97 | 225 | 1.7 | 5.2 | 0.00 | 0.00 | 0.00 | 45 | 1012.7 |
| 20260830203532 | 97 | 210 | 0.9 | 4.3 | 0.00 | 0.00 | 0.00 | 45 | 1012.8 |
| 20260830203031 | 96 | 307 | 3.5 | 5.2 | 0.00 | 0.00 | 0.00 | 46 | 1013.0 |
| 20260830202031 | 97 | 132 | 2.6 | 3.5 | 0.00 | 0.00 | 0.00 | 47 | 1013.1 |
| 20260830201531 | 96 | 118 | 0.9 | 4.3 | 0.00 | 0.00 | 0.00 | 48 | 1013.1 |
| 20260830201031 | 96 | 169 | 4.3 | 4.3 | 0.00 | 0.00 | 0.00 | 47 | 1013.2 |
| 20260830200531 | 96 | 163 | 1.7 | 3.5 | 0.00 | 0.00 | 0.00 | 48 | 1013.2 |
| 20260830200031 | 96 | 186 | 2.6 | 7.0 | 0.00 | 0.00 | 0.00 | 48 | 1013.3 |
| 20260830195531 | 96 | 196 | 2.6 | 7.0 | 0.00 | 0.00 | 0.00 | 48 | 1013.5 |
| 20260830195031 | 96 | 119 | 1.7 | 6.1 | 0.00 | 0.00 | 0.00 | 49 | 1013.5 |
| 20260830194531 | 96 | 215 | 1.7 | 3.5 | 0.00 | 0.00 | 0.00 | 49 | 1013.6 |
| 20260830193531 | 95 | 126 | 1.7 | 8.7 | 0.00 | 0.00 | 0.00 | 50 | 1013.8 |
| 20260830193031 | 95 | 109 | 6.1 | 9.6 | 0.00 | 0.00 | 0.00 | 51 | 1013.9 |
| 20260830192530 | 95 | 136 | 9.6 | 10.4 | 0.00 | 0.00 | 0.00 | 51 | 1013.9 |
| 20260830192031 | 94 | 199 | 4.3 | 10.4 | 0.00 | 0.00 | 0.00 | 51 | 1014.0 |
| 20260830191531 | 94 | 186 | 1.7 | 7.0 | 0.00 | 0.00 | 0.00 | 51 | 1014.1 |
| 20260830191031 | 94 | 79 | 2.6 | 7.0 | 0.00 | 0.00 | 0.00 | 51 | 1014.2 |
| 20260830190530 | 94 | 121 | 7.0 | 7.8 | 0.00 | 0.00 | 0.00 | 52 | 1014.4 |
| 20260830190030 | 94 | 105 | 1.7 | 7.8 | 0.00 | 0.00 | 0.00 | 52 | 1014.4 |
| 20260830185530 | 94 | 207 | 3.5 | 6.1 | 0.00 | 0.00 | 0.00 | 53 | 1014.4 |
| 20260830185031 | 94 | 225 | 6.1 | 6.1 | 0.00 | 0.00 | 0.00 | 54 | 1014.4 |
| 20260830184531 | 94 | 112 | 5.2 | 6.1 | 0.00 | 0.00 | 0.00 | 53 | 1014.5 |
| 20260830184031 | 94 | 132 | 6.1 | 6.1 | 0.00 | 0.00 | 0.00 | 54 | 1014.6 |
| 20260830183530 | 94 | 225 | 1.7 | 6.1 | 0.00 | 0.00 | 0.00 | 54 | 1014.7 |
| 20260830183030 | 94 | 285 | 1.7 | 6.1 | 0.00 | 0.00 | 0.00 | 54 | 1014.8 |
| 20260830182530 | 93 | 120 | 0.9 | 3.5 | 0.00 | 0.00 | 0.00 | 55 | 1014.9 |
| 20260830181530 | 93 | 155 | 0.9 | 2.6 | 0.00 | 0.00 | 0.00 | 55 | 1015.0 |
| 20260830180530 | 93 | 238 | 1.7 | 5.2 | 0.00 | 0.00 | 0.00 | 55 | 1015.2 |
| 20260830180030 | 93 | 185 | 3.5 | 5.2 | 0.00 | 0.00 | 0.00 | 55 | 1015.4 |
| 20260830175530 | 93 | 130 | 3.5 | 4.3 | 0.00 | 0.00 | 0.00 | 55 | 1015.5 |
| 20260830175030 | 93 | 100 | 0.9 | 7.0 | 0.00 | 0.00 | 0.00 | 57 | 1015.6 |
| 20260830174030 | 92 | 119 | 7.0 | 7.0 | 0.00 | 0.00 | 0.00 | 57 | 1015.8 |
| 20260830172530 | 91 | 100 | 7.0 | 10.4 | 0.00 | 0.00 | 0.00 | 58 | 1015.9 |
| 20260830172030 | 91 | 117 | 0.9 | 7.0 | 0.00 | 0.00 | 0.00 | 59 | 1016.0 |
| 20260830171529 | 91 | 250 | 1.7 | 7.0 | 0.00 | 0.00 | 0.00 | 60 | 1016.1 |
| 20260830171029 | 91 | 96 | 6.1 | 7.8 | 0.00 | 0.00 | 0.00 | 60 | 1016.1 |
| 20260830170529 | 90 | 128 | 7.0 | 7.8 | 0.00 | 0.00 | 0.00 | 61 | 1016.2 |
| 20260830170030 | 90 | 318 | 3.5 | 10.4 | 0.00 | 0.00 | 0.00 | 61 | 1016.2 |
| 20260830162529 | 89 | 160 | 7.0 | 10.4 | 0.00 | 0.00 | 0.00 | 65 | 1016.5 |
| 20260830162029 | 89 | 254 | 4.3 | 10.4 | 0.00 | 0.00 | 0.00 | 65 | 1016.5 |
| 20260830161529 | 88 | 165 | 7.8 | 8.7 | 0.00 | 0.00 | 0.00 | 66 | 1016.5 |
| 20260830160029 | 88 | 77 | 0.9 | 3.5 | 0.00 | 0.00 | 0.00 | 68 | 1016.5 |
| 20260830155529 | 88 | 229 | 2.6 | 6.1 | 0.00 | 0.00 | 0.00 | 70 | 1016.5 |
| 20260830155029 | 87 | 149 | 1.7 | 6.1 | 0.00 | 0.00 | 0.00 | 70 | 1016.4 |
| 20260830154529 | 87 | 215 | 1.7 | 4.3 | 0.00 | 0.00 | 0.00 | 71 | 1016.4 |
| 20260830154028 | 87 | 92 | 1.7 | 5.2 | 0.00 | 0.00 | 0.00 | 72 | 1016.4 |
| 20260830153528 | 87 | 230 | 1.7 | 7.8 | 0.00 | 0.00 | 0.00 | 73 | 1016.4 |
| 20260830153028 | 86 | 190 | 3.5 | 9.6 | 0.00 | 0.00 | 0.00 | 73 | 1016.4 |
| 20260830152528 | 86 | 158 | 7.0 | 9.6 | 0.00 | 0.00 | 0.00 | 75 | 1016.3 |
| 20260830152029 | 85 | 165 | 5.2 | 5.2 | 0.00 | 0.00 | 0.00 | 75 | 1016.3 |
| 20260830151529 | 85 | 229 | 2.6 | 3.5 | 0.00 | 0.00 | 0.00 | 75 | 1016.2 |
| 20260830151028 | 85 | 263 | 1.7 | 7.0 | 0.00 | 0.00 | 0.00 | 76 | 1016.3 |
| 20260830150528 | 85 | 205 | 3.5 | 7.0 | 0.00 | 0.00 | 0.00 | 76 | 1016.3 |
| 20260830150028 | 84 | 132 | 2.6 | 4.3 | 0.00 | 0.00 | 0.00 | 77 | 1016.3 |
| 20260830145528 | 84 | 241 | 0.9 | 3.5 | 0.00 | 0.00 | 0.00 | 77 | 1016.3 |
| 20260830144528 | 83 | 151 | 1.7 | 5.2 | 0.00 | 0.00 | 0.00 | 78 | 1016.3 |
| 20260830144028 | 83 | 127 | 1.7 | 4.3 | 0.00 | 0.00 | 0.00 | 78 | 1016.3 |
| 20260830143528 | 83 | 96 | 0.9 | 4.3 | 0.00 | 0.00 | 0.00 | 78 | 1016.3 |
| 20260830143028 | 83 | 147 | 2.6 | 4.3 | 0.00 | 0.00 | 0.00 | 78 | 1016.3 |
| 20260830142527 | 83 | 254 | 0.0 | 3.5 | 0.00 | 0.00 | 0.00 | 78 | 1016.3 |
| 20260830142027 | 82 | 157 | 0.9 | 4.3 | 0.00 | 0.00 | 0.00 | 78 | 1016.3 |
| 20260830141527 | 82 | 203 | 4.3 | 4.3 | 0.00 | 0.00 | 0.00 | 78 | 1016.4 |
| 20260830141028 | 82 | 158 | 1.7 | 2.6 | 0.00 | 0.00 | 0.00 | 79 | 1016.5 |
| 20260830140027 | 82 | 302 | 1.7 | 2.6 | 0.00 | 0.00 | 0.00 | 79 | 1016.4 |
| 20260830135527 | 81 | 136 | 0.9 | 1.7 | 0.00 | 0.00 | 0.00 | 79 | 1016.3 |
| 20260830135027 | 81 | 115 | 0.0 | 3.5 | 0.00 | 0.00 | 0.00 | 79 | 1016.3 |
| 20260830134527 | 81 | 140 | 3.5 | 3.5 | 0.00 | 0.00 | 0.00 | 79 | 1016.3 |
| 20260830134027 | 81 | 143 | 1.7 | 3.5 | 0.00 | 0.00 | 0.00 | 79 | 1016.2 |
| 20260830133527 | 80 | 118 | 0.0 | 3.5 | 0.00 | 0.00 | 0.00 | 80 | 1016.2 |
| 20260830133027 | 80 | 132 | 3.5 | 3.5 | 0.00 | 0.00 | 0.00 | 80 | 1016.1 |
| 20260830132527 | 80 | 94 | 0.0 | 2.6 | 0.00 | 0.00 | 0.00 | 80 | 1016.1 |
| 20260830131527 | 79 | 113 | 0.0 | 0.0 | 0.00 | 0.00 | 0.00 | 80 | 1015.9 |
| 20260830131027 | 78 | 113 | 0.0 | 0.0 | 0.00 | 0.00 | 0.00 | 81 | 1015.8 |
| 20260830130527 | 78 | 113 | 0.0 | 0.0 | 0.00 | 0.00 | 0.00 | 81 | 1015.7 |
| 20260830130027 | 77 | 113 | 0.0 | 0.0 | 0.00 | 0.00 | 0.00 | 81 | 1015.7 |
| 20260830125526 | 77 | 113 | 0.0 | 0.0 | 0.00 | 0.00 | 0.00 | 81 | 1015.8 |
| 20260830125026 | 76 | 113 | 0.0 | 0.0 | 0.00 | 0.00 | 0.00 | 81 | 1015.7 |
| 20260830124526 | 76 | 113 | 0.0 | 0.0 | 0.00 | 0.00 | 0.00 | 81 | 1015.7 |
| 20260830123526 | 76 | 113 | 0.0 | 0.0 | 0.00 | 0.00 | 0.00 | 81 | 1015.6 |
| 20260830123026 | 76 | 113 | 0.0 | 0.0 | 0.00 | 0.00 | 0.00 | 81 | 1015.6 |
| 20260830122526 | 76 | 113 | 0.0 | 0.0 | 0.00 | 0.00 | 0.00 | 80 | 1015.5 |
| 20260830122026 | 76 | 113 | 0.0 | 0.0 | 0.00 | 0.00 | 0.00 | 81 | 1015.5 |
| 20260830121526 | 76 | 113 | 0.0 | 0.0 | 0.00 | 0.00 | 0.00 | 81 | 1015.4 |
| 20260830121026 | 76 | 113 | 0.0 | 0.0 | 0.00 | 0.00 | 0.00 | 80 | 1015.4 |
| 20260830120525 | 76 | 113 | 0.0 | 0.0 | 0.00 | 0.00 | 0.00 | 80 | 1015.4 |
| 20260830120025 | 76 | 113 | 0.0 | 0.0 | 0.00 | 0.00 | 0.00 | 80 | 1015.4 |
| 20260830115526 | 76 | 113 | 0.0 | 0.0 | 0.00 | 0.00 | 0.00 | 80 | 1015.4 |
| 20260830114526 | 76 | 113 | 0.0 | 0.0 | 0.00 | 0.00 | 0.00 | 80 | 1015.4 |
| 20260830114025 | 76 | 113 | 0.0 | 0.0 | 0.00 | 0.00 | 0.00 | 80 | 1015.3 |
| 20260830113526 | 76 | 113 | 0.0 | 0.0 | 0.00 | 0.00 | 0.00 | 80 | 1015.3 |
| 20260830113025 | 76 | 113 | 0.0 | 0.0 | 0.00 | 0.00 | 0.00 | 80 | 1015.2 |
| 20260830112525 | 76 | 113 | 0.0 | 0.0 | 0.00 | 0.00 | 0.00 | 80 | 1015.1 |
| 20260830112025 | 76 | 113 | 0.0 | 0.0 | 0.00 | 0.00 | 0.00 | 80 | 1015.1 |
| 20260830111525 | 77 | 113 | 0.0 | 0.0 | 0.00 | 0.00 | 0.00 | 79 | 1015.3 |
| 20260830111025 | 77 | 113 | 0.0 | 0.0 | 0.00 | 0.00 | 0.00 | 79 | 1015.3 |
| 20260830110025 | 77 | 113 | 0.0 | 0.0 | 0.00 | 0.00 | 0.00 | 79 | 1015.1 |
| 20260830105525 | 77 | 113 | 0.0 | 0.0 | 0.00 | 0.00 | 0.00 | 79 | 1015.1 |
| 20260830105025 | 77 | 113 | 0.0 | 0.9 | 0.00 | 0.00 | 0.00 | 78 | 1015.1 |
| 20260830104525 | 78 | 113 | 0.0 | 0.9 | 0.00 | 0.00 | 0.00 | 78 | 1015.0 |
| 20260830103525 | 78 | 113 | 0.0 | 0.9 | 0.00 | 0.00 | 0.00 | 78 | 1015.0 |
| 20260830103025 | 78 | 188 | 0.0 | 0.9 | 0.00 | 0.00 | 0.00 | 78 | 1015.0 |
| 20260830102524 | 78 | 178 | 0.0 | 2.6 | 0.00 | 0.00 | 0.00 | 78 | 1014.9 |
| 20260830101525 | 78 | 197 | 0.0 | 0.9 | 0.00 | 0.00 | 0.00 | 78 | 1014.9 |
| 20260830101024 | 78 | 239 | 0.0 | 2.6 | 0.00 | 0.00 | 0.00 | 78 | 1014.9 |
| 20260830100524 | 78 | 238 | 0.9 | 2.6 | 0.00 | 0.00 | 0.00 | 78 | 1015.0 |
| 20260830100024 | 78 | 278 | 1.7 | 2.6 | 0.00 | 0.00 | 0.00 | 77 | 1015.0 |
| 20260830095524 | 78 | 199 | 1.7 | 2.6 | 0.00 | 0.00 | 0.00 | 77 | 1014.9 |
| 20260830095024 | 78 | 207 | 0.0 | 2.6 | 0.00 | 0.00 | 0.00 | 77 | 1014.9 |
| 20260830094524 | 79 | 205 | 0.0 | 2.6 | 0.00 | 0.00 | 0.00 | 77 | 1014.8 |
| 20260830094024 | 79 | 210 | 0.0 | 2.6 | 0.00 | 0.00 | 0.00 | 77 | 1014.7 |
| 20260830093524 | 79 | 198 | 0.0 | 1.7 | 0.00 | 0.00 | 0.00 | 77 | 1014.8 |
| 20260830092524 | 79 | 207 | 0.9 | 1.7 | 0.00 | 0.00 | 0.00 | 76 | 1014.8 |
| 20260830092024 | 79 | 158 | 0.0 | 0.9 | 0.00 | 0.00 | 0.00 | 76 | 1014.7 |
| 20260830091524 | 79 | 198 | 0.0 | 0.9 | 0.00 | 0.00 | 0.00 | 76 | 1014.7 |
| 20260830091024 | 79 | 196 | 0.9 | 0.9 | 0.00 | 0.00 | 0.00 | 76 | 1014.7 |
| 20260830090524 | 79 | 172 | 0.0 | 1.7 | 0.00 | 0.00 | 0.00 | 75 | 1014.8 |
| 20260830090024 | 79 | 172 | 0.0 | 1.7 | 0.00 | 0.00 | 0.00 | 75 | 1014.9 |
| 20260830085524 | 80 | 185 | 0.0 | 1.7 | 0.00 | 0.00 | 0.00 | 75 | 1015.0 |
| 20260830085024 | 80 | 260 | 0.9 | 1.7 | 0.00 | 0.00 | 0.00 | 75 | 1014.9 |
| 20260830084524 | 80 | 136 | 0.0 | 1.7 | 0.00 | 0.00 | 0.00 | 75 | 1014.9 |
| 20260830084024 | 80 | 210 | 1.7 | 1.7 | 0.00 | 0.00 | 0.00 | 74 | 1014.9 |
| 20260830083024 | 80 | 229 | 0.0 | 2.6 | 0.00 | 0.00 | 0.00 | 74 | 1014.9 |
| 20260830082524 | 80 | 261 | 0.9 | 3.5 | 0.00 | 0.00 | 0.00 | 74 | 1014.8 |
| 20260830082023 | 80 | 238 | 0.9 | 4.3 | 0.00 | 0.00 | 0.00 | 74 | 1014.9 |
| 20260830081524 | 80 | 275 | 1.7 | 4.3 | 0.00 | 0.00 | 0.00 | 73 | 1014.9 |
| 20260830081024 | 81 | 271 | 0.0 | 0.9 | 0.00 | 0.00 | 0.00 | 73 | 1015.0 |
| 20260830080524 | 81 | 193 | 0.9 | 2.6 | 0.00 | 0.00 | 0.00 | 73 | 1015.1 |
| 20260830080023 | 81 | 147 | 0.9 | 3.5 | 0.00 | 0.00 | 0.00 | 73 | 1015.2 |
| 20260830075523 | 81 | 184 | 0.9 | 3.5 | 0.00 | 0.00 | 0.00 | 73 | 1015.2 |